Location: *
(55.5817°S, 142.4781°W)
Time: 07:54:53
(UTC+00:00)

IRAS Rocket - Pass Details

Date: 29 April 2025
Orbit: 846 x 875 km, 100.1° (Epoch: 18 May)

Event Time Altitude Azimuth Distance (km) Brightness Sun altitude
Rises 13:23:38 0° 30° (NNE) 3,456 7.5 -29.3°
Reaches altitude 10° 13:26:01 10° 32° (NNE) 2,522 6.8 -29.0°
Maximum altitude 13:31:35 70° 114° (ESE) 929 4.4 -28.2°
Drops below altitude 10° 13:37:10 10° 196° (SSW) 2,529 6.6 -27.5°
Sets 13:39:33 0° 198° (SSW) 3,467 7.4 -27.2°
